FW5264 Weather Reports


Display with metric or nautical units.
time (UTC)temp
F
wind
direction
speed
MPH
gust
MPH
rain 1hr
in
rain 24hr
in
rain mn
in
humidity
%
barometer
mb
20260505075328 50 193 1.0 4.0 0.00 0.00 0.00 73 1021.6
20260505074427 50 227 0.0 1.0 0.00 0.00 0.00 73 1021.6
20260505073427 50 183 1.0 5.0 0.00 0.00 0.00 72 1021.6
20260505072427 51 227 0.0 1.0 0.00 0.00 0.00 72 1021.6
20260505071429 51 193 0.0 4.0 0.00 0.00 0.00 71 1021.6
20260505070445 51 196 1.0 8.0 0.00 0.00 0.00 71 1021.5
20260505065527 51 211 0.0 3.0 0.00 0.00 0.00 72 1021.4
20260505064527 51 219 1.0 5.0 0.00 0.00 0.00 71 1021.4
20260505061526 51 187 0.0 2.0 0.00 0.00 0.00 69 1021.5
20260505060530 51 181 0.0 2.0 0.00 0.00 0.00 70 1021.4
20260505055528 51 185 1.0 4.0 0.00 0.00 0.00 69 1021.5
20260505053528 51 194 3.0 5.0 0.00 0.00 0.00 68 1021.5
20260505052526 51 190 1.0 4.0 0.00 0.00 0.00 68 1021.4
20260505040928 50 190 1.0 4.0 0.00 0.00 0.00 65 1021.9
20260505035941 50 179 1.0 5.0 0.00 0.00 0.00 64 1022.1
20260505033123 50 200 3.0 10.0 0.00 0.00 0.00 63 1022.1
20260505032124 50 198 1.0 3.0 0.00 0.00 0.00 62 1022.0
20260505031125 51 191 3.0 5.0 0.00 0.00 0.00 61 1022.1
20260505025224 51 187 4.0 7.0 0.00 0.00 0.00 61 1022.0
20260505024225 51 192 3.0 5.0 0.00 0.00 0.00 61 1022.1
20260505023323 51 195 4.0 9.0 0.00 0.00 0.00 59 1022.1
20260505022342 51 199 4.0 12.0 0.00 0.00 0.00 59 1022.1
20260505021424 51 190 4.0 5.0 0.00 0.00 0.00 59 1022.1
20260505020522 51 186 3.0 8.0 0.00 0.00 0.00 58 1022.1
20260505015525 51 189 4.0 9.0 0.00 0.00 0.00 59 1022.1
20260505014524 51 191 1.0 4.0 0.00 0.00 0.00 59 1021.9
20260505012523 51 192 3.0 6.0 0.00 0.00 0.00 58 1021.7
20260505011523 51 188 1.0 6.0 0.00 0.00 0.00 57 1021.6
20260505010622 51 192 3.0 6.0 0.00 0.00 0.00 56 1021.3
20260505005624 51 182 4.0 8.0 0.00 0.00 0.00 57 1021.4
20260505005524 51 197 2.0 4.0 0.00 0.00 0.00 57 1021.4
20260505003622 51 189 1.0 3.0 0.00 0.00 0.00 56 1021.0
20260505002625 51 194 3.0 6.0 0.00 0.00 0.00 56 1020.8
20260505001624 51 187 4.0 8.0 0.00 0.00 0.00 55 1020.7
20260505000624 51 196 4.0 10.0 0.00 0.00 0.00 55 1020.4
20260504235624 51 192 2.0 4.0 0.00 0.00 0.00 55 1020.5
20260504234623 51 194 3.0 7.0 0.00 0.00 0.00 54 1020.3
20260504233623 52 190 4.0 9.0 0.00 0.00 0.00 55 1020.4
20260504232623 52 190 2.0 4.0 0.00 0.00 0.00 55 1020.4
20260504231722 52 196 5.0 10.0 0.00 0.00 0.00 53 1020.3
20260504230740 53 193 3.0 11.0 0.00 0.00 0.00 53 1020.3
20260504225825 53 194 3.0 6.0 0.00 0.00 0.00 54 1020.1
20260504224842 54 192 3.0 6.0 0.00 0.00 0.00 54 1020.1
20260504223924 54 194 2.0 4.0 0.00 0.00 0.00 54 1020.2
20260504222922 55 183 5.0 10.0 0.00 0.00 0.00 54 1020.0
20260504221022 57 191 3.0 7.0 0.00 0.00 0.00 53 1020.0
20260504220023 58 195 4.0 7.0 0.00 0.00 0.00 53 1020.0
20260504215023 58 182 2.0 5.0 0.00 0.00 0.00 54 1020.0
20260504214024 58 188 4.0 14.0 0.00 0.00 0.00 54 1020.1
20260504212140 58 191 3.0 8.0 0.00 0.00 0.00 53 1020.0
20260504211222 59 189 3.0 7.0 0.00 0.00 0.00 54 1020.2
20260504210224 59 191 1.0 4.0 0.00 0.00 0.00 53 1020.1
20260504204323 59 185 5.0 11.0 0.00 0.00 0.00 54 1020.0
20260504203323 60 193 5.0 8.0 0.00 0.00 0.00 55 1019.9
20260504202340 60 186 3.0 5.0 0.00 0.00 0.00 55 1019.9
20260504201423 61 194 5.0 16.0 0.00 0.00 0.00 54 1019.8
20260504200439 61 193 3.0 13.0 0.00 0.00 0.00 54 1019.9
20260504195423 61 189 5.0 13.0 0.00 0.00 0.00 54 1019.9
20260504194424 62 185 3.0 9.0 0.00 0.00 0.00 56 1020.0
20260504193523 63 197 3.0 5.0 0.00 0.00 0.00 56 1019.9
20260504192541 62 187 2.0 6.0 0.00 0.00 0.00 56 1020.0
20260504191624 61 191 6.0 11.0 0.00 0.00 0.00 56 1020.0
20260504185624 62 187 5.0 8.0 0.00 0.00 0.00 56 1020.1
20260504184624 61 188 5.0 13.0 0.00 0.00 0.00 57 1020.2
20260504183623 61 187 1.0 6.0 0.00 0.00 0.00 56 1020.2
20260504182642 61 181 6.0 10.0 0.00 0.00 0.00 57 1020.1
20260504181722 61 183 5.0 14.0 0.00 0.00 0.00 57 1020.2
20260504180722 61 191 5.0 10.0 0.00 0.00 0.00 57 1020.3
20260504175724 60 184 3.0 10.0 0.00 0.00 0.00 56 1020.4
20260504173822 60 184 5.0 11.0 0.00 0.00 0.00 57 1020.5
20260504172823 61 188 6.0 14.0 0.00 0.00 0.00 58 1020.4
20260504171824 59 182 4.0 9.0 0.00 0.00 0.00 58 1020.6
20260504170822 59 182 6.0 11.0 0.00 0.00 0.00 57 1020.7
20260504151025 61 190 3.0 7.0 0.00 0.00 0.00 61 1021.1
20260504141142 60 181 2.0 5.0 0.00 0.00 0.00 63 1021.4
20260504140222 60 180 3.0 7.0 0.00 0.00 0.00 62 1021.5
20260504130225 58 186 0.0 3.0 0.00 0.00 0.00 64 1021.4
20260504120124 56 180 1.0 4.0 0.00 0.00 0.00 64 1021.6
20260504110323 52 174 0.0 4.0 0.00 0.00 0.00 61 1021.6